Wetterdaten: Dienstag, 06.08.2013
Datum Zeit Temperatur Luftfeuchte Luftdruck Regen Wind Richtung Richtung Taupunkt Windchill Windben
06.08.2013 00:00 19,7 C 81 % 1021,6 hPa 0,0 l/m 0,2 km/h (0 Bft) O 90 16,3 C 19,5 C 0,0 km/h (0 Bft)
06.08.2013 00:05 19,7 C 81 % 1021,8 hPa 0,0 l/m 0,0 km/h (0 Bft) O-SO 112 16,3 C 19,6 C 0,0 km/h (0 Bft)
06.08.2013 00:10 20,0 C 82 % 1021,8 hPa 0,0 l/m 0,8 km/h (0 Bft) O 90 16,8 C 19,8 C 0,0 km/h (0 Bft)
06.08.2013 00:15 20,0 C 82 % 1021,8 hPa 0,0 l/m 1,1 km/h (1 Bft) NO 45 16,8 C 19,9 C 0,0 km/h (0 Bft)
06.08.2013 00:20 20,0 C 81 % 1021,8 hPa 0,0 l/m 1,8 km/h (1 Bft) O-NO 67 16,6 C 19,9 C 4,2 km/h (1 Bft)
06.08.2013 00:25 19,8 C 81 % 1021,6 hPa 0,0 l/m 1,8 km/h (1 Bft) W-SW 247 16,4 C 19,9 C 1,8 km/h (1 Bft)
06.08.2013 00:30 19,7 C 81 % 1021,6 hPa 0,0 l/m 1,0 km/h (0 Bft) O-SO 112 16,3 C 19,8 C 0,0 km/h (0 Bft)
06.08.2013 00:35 19,6 C 81 % 1021,6 hPa 0,0 l/m 1,0 km/h (0 Bft) O-NO 67 16,2 C 19,7 C 2,6 km/h (1 Bft)
06.08.2013 00:40 19,3 C 81 % 1021,6 hPa 0,0 l/m 0,6 km/h (0 Bft) O-SO 112 16,0 C 19,5 C 0,0 km/h (0 Bft)
06.08.2013 00:45 19,2 C 81 % 1021,3 hPa 0,0 l/m 0,3 km/h (0 Bft) O-SO 112 15,9 C 19,3 C 0,0 km/h (0 Bft)
06.08.2013 00:50 19,0 C 81 % 1021,3 hPa 0,0 l/m 0,0 km/h (0 Bft) O 90 15,7 C 19,1 C 1,8 km/h (1 Bft)
06.08.2013 00:55 19,2 C 82 % 1021,3 hPa 0,0 l/m 0,3 km/h (0 Bft) O 90 16,0 C 19,0 C 0,0 km/h (0 Bft)
06.08.2013 01:00 19,4 C 82 % 1021,3 hPa 0,0 l/m 1,0 km/h (0 Bft) O-SO 112 16,2 C 19,1 C 0,0 km/h (0 Bft)
06.08.2013 01:05 19,4 C 81 % 1021,4 hPa 0,0 l/m 0,8 km/h (0 Bft) O-SO 112 16,1 C 19,1 C 0,0 km/h (0 Bft)
06.08.2013 01:10 19,5 C 81 % 1021,4 hPa 0,0 l/m 0,2 km/h (0 Bft) O 90 16,1 C 19,2 C 0,0 km/h (0 Bft)
06.08.2013 01:15 19,6 C 81 % 1021,4 hPa 0,0 l/m 0,2 km/h (0 Bft) S-SW 202 16,2 C 19,3 C 0,0 km/h (0 Bft)
06.08.2013 01:20 20,0 C 80 % 1021,4 hPa 0,0 l/m 0,8 km/h (0 Bft) O 90 16,4 C 19,7 C 5,0 km/h (1 Bft)
06.08.2013 01:25 20,0 C 79 % 1021,6 hPa 0,0 l/m 1,4 km/h (1 Bft) S 180 16,2 C 19,9 C 3,9 km/h (1 Bft)
06.08.2013 01:30 20,0 C 79 % 1021,6 hPa 0,0 l/m 1,3 km/h (1 Bft) O 90 16,2 C 20,1 C 5,3 km/h (1 Bft)
06.08.2013 01:35 20,3 C 79 % 1021,6 hPa 0,0 l/m 2,3 km/h (1 Bft) SO 135 16,5 C 20,1 C 10,0 km/h (2 Bft)
06.08.2013 01:40 20,4 C 78 % 1021,6 hPa 0,0 l/m 3,5 km/h (1 Bft) S 180 16,4 C 20,6 C 5,0 km/h (1 Bft)
06.08.2013 01:45 20,4 C 78 % 1021,9 hPa 0,0 l/m 5,3 km/h (1 Bft) S-SO 157 16,4 C 20,9 C 13,8 km/h (3 Bft)
06.08.2013 01:50 21,6 C 74 % 1021,9 hPa 0,0 l/m 8,9 km/h (2 Bft) S 180 16,8 C 20,8 C 21,6 km/h (4 Bft)
06.08.2013 01:55 22,0 C 71 % 1021,9 hPa 0,0 l/m 10,9 km/h (2 Bft) S 180 16,5 C 20,8 C 8,9 km/h (2 Bft)
06.08.2013 02:00 21,9 C 68 % 1021,9 hPa 0,0 l/m 9,7 km/h (2 Bft) SO 135 15,7 C 21,4 C 8,9 km/h (2 Bft)
06.08.2013 02:05 22,1 C 66 % 1022,8 hPa 0,0 l/m 9,0 km/h (2 Bft) W-SW 247 15,4 C 21,7 C 15,4 km/h (3 Bft)
06.08.2013 02:10 21,9 C 61 % 1022,8 hPa 0,0 l/m 9,0 km/h (2 Bft) S-SW 202 14,0 C 21,8 C 15,3 km/h (3 Bft)
06.08.2013 02:15 21,8 C 59 % 1022,8 hPa 0,0 l/m 7,6 km/h (2 Bft) NW 315 13,4 C 22,2 C 3,5 km/h (1 Bft)
06.08.2013 02:20 21,5 C 61 % 1022,8 hPa 0,0 l/m 5,1 km/h (1 Bft) N-NO 22 13,7 C 22,6 C 4,3 km/h (1 Bft)
06.08.2013 02:25 21,5 C 59 % 1022,1 hPa 0,0 l/m 2,9 km/h (1 Bft) SW 225 13,1 C 22,5 C 2,7 km/h (1 Bft)
06.08.2013 02:30 21,5 C 59 % 1022,1 hPa 0,0 l/m 3,4 km/h (1 Bft) S-SO 157 13,1 C 22,3 C 3,9 km/h (1 Bft)
06.08.2013 02:35 21,3 C 58 % 1022,1 hPa 0,0 l/m 4,3 km/h (1 Bft) SO 135 12,7 C 22,2 C 7,1 km/h (2 Bft)
06.08.2013 02:40 21,1 C 59 % 1022,1 hPa 0,0 l/m 3,9 km/h (1 Bft) S 180 12,8 C 22,0 C 6,4 km/h (2 Bft)
06.08.2013 02:45 20,9 C 59 % 1022,1 hPa 0,0 l/m 3,5 km/h (1 Bft) S 180 12,6 C 21,8 C 2,1 km/h (1 Bft)
06.08.2013 02:50 20,5 C 61 % 1022,1 hPa 0,0 l/m 3,4 km/h (1 Bft) S 180 12,7 C 21,4 C 3,5 km/h (1 Bft)
06.08.2013 02:55 20,2 C 63 % 1022,1 hPa 0,0 l/m 3,2 km/h (1 Bft) W-NW 292 12,9 C 21,1 C 4,5 km/h (1 Bft)
06.08.2013 03:00 19,9 C 64 % 1022,1 hPa 0,0 l/m 2,7 km/h (1 Bft) SO 135 12,9 C 20,7 C 4,5 km/h (1 Bft)
06.08.2013 03:05 20,0 C 63 % 1021,9 hPa 0,0 l/m 4,0 km/h (1 Bft) S 180 12,7 C 20,4 C 6,8 km/h (2 Bft)
06.08.2013 03:10 19,5 C 65 % 1021,9 hPa 0,0 l/m 4,3 km/h (1 Bft) O 90 12,7 C 20,0 C 0,0 km/h (0 Bft)
06.08.2013 03:15 19,3 C 66 % 1021,9 hPa 0,0 l/m 2,9 km/h (1 Bft) NO 45 12,8 C 19,7 C 4,2 km/h (1 Bft)
06.08.2013 03:20 19,0 C 66 % 1021,9 hPa 0,0 l/m 1,3 km/h (1 Bft) W-NW 292 12,5 C 19,5 C 0,0 km/h (0 Bft)
06.08.2013 03:25 19,1 C 66 % 1021,5 hPa 0,0 l/m 0,8 km/h (0 Bft) SO 135 12,6 C 19,4 C 2,3 km/h (1 Bft)
06.08.2013 03:30 19,1 C 65 % 1021,5 hPa 0,0 l/m 0,5 km/h (0 Bft) S-SW 202 12,4 C 19,4 C 0,0 km/h (0 Bft)
06.08.2013 03:35 19,1 C 64 % 1021,5 hPa 0,0 l/m 0,6 km/h (0 Bft) SO 135 12,1 C 19,5 C 0,0 km/h (0 Bft)
06.08.2013 03:40 19,1 C 65 % 1021,5 hPa 0,0 l/m 0,3 km/h (0 Bft) N-NW 337 12,4 C 19,4 C 0,0 km/h (0 Bft)
06.08.2013 03:45 18,9 C 66 % 1021,4 hPa 0,0 l/m 0,2 km/h (0 Bft) S-SW 202 12,4 C 19,3 C 0,0 km/h (0 Bft)
06.08.2013 03:50 18,8 C 67 % 1021,4 hPa 0,0 l/m 0,8 km/h (0 Bft) W-SW 247 12,5 C 19,3 C 2,4 km/h (1 Bft)
06.08.2013 03:55 18,8 C 67 % 1021,4 hPa 0,0 l/m 1,3 km/h (1 Bft) N-NO 22 12,5 C 19,5 C 2,7 km/h (1 Bft)
06.08.2013 04:00 18,8 C 68 % 1021,4 hPa 0,0 l/m 1,4 km/h (1 Bft) W-SW 247 12,8 C 19,6 C 3,7 km/h (1 Bft)
06.08.2013 04:05 18,8 C 68 % 1020,7 hPa 0,0 l/m 1,3 km/h (1 Bft) S-SW 202 12,8 C 19,7 C 2,1 km/h (1 Bft)
06.08.2013 04:10 18,9 C 69 % 1020,7 hPa 0,0 l/m 2,3 km/h (1 Bft) N-NO 22 13,1 C 19,6 C 3,1 km/h (1 Bft)
06.08.2013 04:15 19,0 C 68 % 1020,7 hPa 0,0 l/m 1,9 km/h (1 Bft) SO 135 13,0 C 19,5 C 1,8 km/h (1 Bft)
06.08.2013 04:20 18,6 C 69 % 1020,7 hPa 0,0 l/m 1,3 km/h (1 Bft) W-SW 247 12,8 C 19,3 C 2,7 km/h (1 Bft)
06.08.2013 04:25 18,5 C 69 % 1020,8 hPa 0,0 l/m 1,3 km/h (1 Bft) S-SO 157 12,7 C 19,3 C 2,4 km/h (1 Bft)
06.08.2013 04:30 18,6 C 68 % 1020,8 hPa 0,0 l/m 2,6 km/h (1 Bft) S 180 12,6 C 19,1 C 6,3 km/h (2 Bft)
06.08.2013 04:35 18,6 C 68 % 1020,8 hPa 0,0 l/m 3,4 km/h (1 Bft) O-SO 112 12,6 C 19,1 C 6,1 km/h (2 Bft)
06.08.2013 04:40 18,0 C 69 % 1020,8 hPa 0,0 l/m 2,6 km/h (1 Bft) O-NO 67 12,2 C 18,8 C 2,6 km/h (1 Bft)
06.08.2013 04:45 17,8 C 69 % 1020,7 hPa 0,0 l/m 1,0 km/h (0 Bft) O-NO 67 12,0 C 18,5 C 0,0 km/h (0 Bft)
06.08.2013 04:50 17,5 C 69 % 1020,7 hPa 0,0 l/m 0,5 km/h (0 Bft) SO 135 11,7 C 18,1 C 0,0 km/h (0 Bft)
06.08.2013 04:55 17,4 C 70 % 1020,7 hPa 0,0 l/m 0,8 km/h (0 Bft) S 180 11,9 C 18,0 C 2,7 km/h (1 Bft)
06.08.2013 05:00 17,5 C 70 % 1020,7 hPa 0,0 l/m 0,6 km/h (0 Bft) NO 45 12,0 C 17,9 C 0,0 km/h (0 Bft)
06.08.2013 05:05 17,4 C 69 % 1020,4 hPa 0,0 l/m 0,5 km/h (0 Bft) S-SW 202 11,7 C 17,8 C 0,0 km/h (0 Bft)
06.08.2013 05:10 17,2 C 69 % 1020,4 hPa 0,0 l/m 0,3 km/h (0 Bft) O-NO 67 11,5 C 17,6 C 1,8 km/h (1 Bft)
06.08.2013 05:15 16,9 C 70 % 1020,4 hPa 0,0 l/m 0,3 km/h (0 Bft) O-SO 112 11,4 C 17,5 C 0,0 km/h (0 Bft)
06.08.2013 05:20 16,9 C 70 % 1020,4 hPa 0,0 l/m 1,1 km/h (1 Bft) W-SW 247 11,4 C 17,5 C 4,7 km/h (1 Bft)
06.08.2013 05:25 16,9 C 71 % 1020,2 hPa 0,0 l/m 1,4 km/h (1 Bft) W-SW 247 11,6 C 17,6 C 2,9 km/h (1 Bft)
06.08.2013 05:30 16,9 C 72 % 1020,2 hPa 0,0 l/m 1,4 km/h (1 Bft) W 270 11,8 C 17,5 C 0,0 km/h (0 Bft)
06.08.2013 05:35 16,7 C 72 % 1020,2 hPa 0,0 l/m 1,0 km/h (0 Bft) O-SO 112 11,6 C 17,4 C 2,6 km/h (1 Bft)
06.08.2013 05:40 16,5 C 72 % 1020,2 hPa 0,0 l/m 0,8 km/h (0 Bft) W 270 11,4 C 17,2 C 0,0 km/h (0 Bft)
06.08.2013 05:45 16,4 C 73 % 1020,5 hPa 0,0 l/m 0,5 km/h (0 Bft) W 270 11,5 C 17,1 C 0,0 km/h (0 Bft)
06.08.2013 05:50 16,5 C 73 % 1020,5 hPa 0,0 l/m 0,3 km/h (0 Bft) O-NO 67 11,6 C 17,0 C 0,0 km/h (0 Bft)
06.08.2013 05:55 16,4 C 73 % 1020,5 hPa 0,0 l/m 0,5 km/h (0 Bft) O 90 11,5 C 16,9 C 0,0 km/h (0 Bft)
06.08.2013 06:00 16,4 C 72 % 1020,5 hPa 0,0 l/m 0,3 km/h (0 Bft) O-SO 112 11,3 C 16,7 C 0,0 km/h (0 Bft)
06.08.2013 06:05 16,3 C 72 % 1020,5 hPa 0,0 l/m 0,2 km/h (0 Bft) O 90 11,2 C 16,5 C 0,0 km/h (0 Bft)
06.08.2013 06:10 16,5 C 72 % 1020,5 hPa 0,0 l/m 0,3 km/h (0 Bft) S-SW 202 11,4 C 16,7 C 0,0 km/h (0 Bft)
06.08.2013 06:15 16,6 C 72 % 1020,5 hPa 0,0 l/m 0,6 km/h (0 Bft) O 90 11,5 C 16,7 C 0,0 km/h (0 Bft)
06.08.2013 06:20 16,5 C 72 % 1020,5 hPa 0,0 l/m 0,8 km/h (0 Bft) SO 135 11,4 C 16,7 C 1,9 km/h (1 Bft)
06.08.2013 06:25 16,5 C 72 % 1020,7 hPa 0,0 l/m 0,6 km/h (0 Bft) S-SO 157 11,4 C 16,8 C 1,6 km/h (1 Bft)
06.08.2013 06:30 16,5 C 72 % 1020,7 hPa 0,0 l/m 0,6 km/h (0 Bft) S-SO 157 11,4 C 16,8 C 0,0 km/h (0 Bft)
06.08.2013 06:35 16,5 C 73 % 1020,7 hPa 0,0 l/m 1,0 km/h (0 Bft) S 180 11,6 C 16,8 C 2,3 km/h (1 Bft)
06.08.2013 06:40 16,7 C 73 % 1020,7 hPa 0,0 l/m 1,1 km/h (1 Bft) S 180 11,8 C 17,0 C 1,9 km/h (1 Bft)
06.08.2013 06:45 16,8 C 73 % 1020,6 hPa 0,0 l/m 1,1 km/h (1 Bft) O-SO 112 11,9 C 17,6 C 0,0 km/h (0 Bft)
06.08.2013 06:50 16,9 C 72 % 1020,6 hPa 0,0 l/m 0,5 km/h (0 Bft) SW 225 11,8 C 18,3 C 1,6 km/h (1 Bft)
06.08.2013 06:55 16,9 C 72 % 1020,6 hPa 0,0 l/m 0,3 km/h (0 Bft) S 180 11,8 C 18,5 C 3,5 km/h (1 Bft)
06.08.2013 07:00 17,1 C 73 % 1020,6 hPa 0,0 l/m 0,5 km/h (0 Bft) S-SW 202 12,2 C 18,9 C 0,0 km/h (0 Bft)
06.08.2013 07:05 17,0 C 72 % 1020,9 hPa 0,0 l/m 0,2 km/h (0 Bft) S-SW 202 11,9 C 19,1 C 0,0 km/h (0 Bft)
06.08.2013 07:10 18,3 C 71 % 1020,9 hPa 0,0 l/m 0,0 km/h (0 Bft) NO 45 12,9 C 19,8 C 0,0 km/h (0 Bft)
06.08.2013 07:15 18,9 C 70 % 1020,9 hPa 0,0 l/m 0,2 km/h (0 Bft) W 270 13,3 C 20,6 C 0,0 km/h (0 Bft)
06.08.2013 07:20 20,3 C 67 % 1020,9 hPa 0,0 l/m 0,5 km/h (0 Bft) W-SW 247 14,0 C 21,4 C 0,0 km/h (0 Bft)
06.08.2013 07:25 20,4 C 64 % 1020,6 hPa 0,0 l/m 0,3 km/h (0 Bft) O 90 13,4 C 22,0 C 0,0 km/h (0 Bft)
06.08.2013 07:30 18,8 C 67 % 1020,6 hPa 0,0 l/m 0,5 km/h (0 Bft) W-NW 292 12,5 C 22,8 C 0,0 km/h (0 Bft)
06.08.2013 07:35 18,4 C 69 % 1020,6 hPa 0,0 l/m 0,3 km/h (0 Bft) NO 45 12,6 C 23,3 C 0,0 km/h (0 Bft)
06.08.2013 07:40 18,6 C 70 % 1020,6 hPa 0,0 l/m 0,5 km/h (0 Bft) NO 45 13,0 C 23,7 C 1,6 km/h (1 Bft)
06.08.2013 07:45 21,3 C 66 % 1021,2 hPa 0,0 l/m 0,6 km/h (0 Bft) N-NO 22 14,7 C 23,8 C 0,0 km/h (0 Bft)
06.08.2013 07:50 23,1 C 60 % 1021,2 hPa 0,0 l/m 0,6 km/h (0 Bft) NO 45 14,9 C 24,4 C 3,1 km/h (1 Bft)
06.08.2013 07:55 23,6 C 59 % 1021,2 hPa 0,0 l/m 0,8 km/h (0 Bft) O 90 15,1 C 24,8 C 1,9 km/h (1 Bft)
06.08.2013 08:00 23,5 C 56 % 1021,2 hPa 0,0 l/m 1,1 km/h (1 Bft) N-NW 337 14,2 C 25,1 C 2,7 km/h (1 Bft)
06.08.2013 08:05 21,9 C 61 % 1021,4 hPa 0,0 l/m 1,0 km/h (0 Bft) O 90 14,0 C 24,4 C 0,0 km/h (0 Bft)
06.08.2013 08:10 23,3 C 60 % 1021,4 hPa 0,0 l/m 0,2 km/h (0 Bft) O-SO 112 15,1 C 24,1 C 0,0 km/h (0 Bft)
06.08.2013 08:15 22,1 C 63 % 1021,4 hPa 0,0 l/m 0,0 km/h (0 Bft) SW 225 14,7 C 23,7 C 0,0 km/h (0 Bft)
06.08.2013 08:20 24,7 C 58 % 1021,4 hPa 0,0 l/m 0,0 km/h (0 Bft) O-SO 112 15,9 C 23,9 C 0,0 km/h (0 Bft)
06.08.2013 08:25 25,3 C 55 % 1021,4 hPa 0,0 l/m 0,0 km/h (0 Bft) NO 45 15,6 C 25,2 C 0,0 km/h (0 Bft)
06.08.2013 08:30 24,1 C 56 % 1021,4 hPa 0,0 l/m 0,0 km/h (0 Bft) NO 45 14,8 C 26,8 C 0,0 km/h (0 Bft)
06.08.2013 08:35 24,4 C 58 % 1021,4 hPa 0,0 l/m 0,2 km/h (0 Bft) O-SO 112 15,6 C 25,9 C 0,0 km/h (0 Bft)
06.08.2013 08:40 26,5 C 56 % 1021,4 hPa 0,0 l/m 0,3 km/h (0 Bft) NW 315 17,0 C 26,3 C 2,3 km/h (1 Bft)
06.08.2013 08:45 27,3 C 53 % 1021,8 hPa 0,0 l/m 0,6 km/h (0 Bft) S-SO 157 16,9 C 26,7 C 0,0 km/h (0 Bft)
06.08.2013 08:50 27,0 C 49 % 1021,8 hPa 0,0 l/m 0,5 km/h (0 Bft) NO 45 15,4 C 28,0 C 0,0 km/h (0 Bft)
06.08.2013 08:55 27,8 C 50 % 1021,8 hPa 0,0 l/m 0,0 km/h (0 Bft) W-SW 247 16,4 C 28,8 C 0,0 km/h (0 Bft)
06.08.2013 09:00 27,8 C 49 % 1021,8 hPa 0,0 l/m 0,0 km/h (0 Bft) NO 45 16,1 C 29,9 C 0,0 km/h (0 Bft)
06.08.2013 09:05 28,0 C 48 % 1021,9 hPa 0,0 l/m 0,2 km/h (0 Bft) O 90 15,9 C 30,2 C 1,6 km/h (1 Bft)
06.08.2013 09:10 28,9 C 47 % 1021,9 hPa 0,0 l/m 0,2 km/h (0 Bft) NO 45 16,4 C 30,8 C 0,0 km/h (0 Bft)
06.08.2013 09:15 29,1 C 47 % 1021,9 hPa 0,0 l/m 0,2 km/h (0 Bft) N-NO 22 16,6 C 31,2 C 0,0 km/h (0 Bft)
06.08.2013 09:20 29,1 C 47 % 1021,9 hPa 0,0 l/m 0,0 km/h (0 Bft) O-NO 67 16,6 C 31,9 C 0,0 km/h (0 Bft)
06.08.2013 09:25 29,7 C 47 % 1021,9 hPa 0,0 l/m 0,0 km/h (0 Bft) O-SO 112 17,2 C 32,1 C 0,0 km/h (0 Bft)
06.08.2013 09:30 29,8 C 46 % 1021,9 hPa 0,0 l/m 0,0 km/h (0 Bft) O-NO 67 16,9 C 32,4 C 0,0 km/h (0 Bft)
06.08.2013 09:35 30,2 C 43 % 1021,9 hPa 0,0 l/m 0,0 km/h (0 Bft) N-NO 22 16,2 C 32,8 C 0,0 km/h (0 Bft)
06.08.2013 09:40 30,1 C 44 % 1021,9 hPa 0,0 l/m 0,0 km/h (0 Bft) NO 45 16,5 C 33,3 C 1,8 km/h (1 Bft)
06.08.2013 09:45 29,4 C 44 % 1022,1 hPa 0,0 l/m 0,2 km/h (0 Bft) O 90 15,8 C 33,3 C 0,0 km/h (0 Bft)
06.08.2013 09:50 29,4 C 43 % 1022,1 hPa 0,0 l/m 0,2 km/h (0 Bft) S-SO 157 15,5 C 33,3 C 0,0 km/h (0 Bft)
06.08.2013 09:55 30,6 C 43 % 1022,1 hPa 0,0 l/m 0,3 km/h (0 Bft) S-SW 202 16,6 C 33,4 C 0,0 km/h (0 Bft)
06.08.2013 10:00 31,1 C 39 % 1022,1 hPa 0,0 l/m 1,3 km/h (1 Bft) SO 135 15,5 C 33,2 C 0,0 km/h (0 Bft)
06.08.2013 10:05 30,5 C 40 % 1022,2 hPa 0,0 l/m 1,6 km/h (1 Bft) W-NW 292 15,3 C 33,4 C 4,3 km/h (1 Bft)
06.08.2013 10:10 30,6 C 38 % 1022,2 hPa 0,0 l/m 2,6 km/h (1 Bft) S 180 14,6 C 33,2 C 4,8 km/h (1 Bft)
06.08.2013 10:15 30,8 C 38 % 1022,2 hPa 0,0 l/m 2,9 km/h (1 Bft) W-SW 247 14,8 C 33,0 C 1,9 km/h (1 Bft)
06.08.2013 10:20 30,7 C 36 % 1022,2 hPa 0,0 l/m 2,3 km/h (1 Bft) S 180 13,9 C 33,3 C 2,4 km/h (1 Bft)
06.08.2013 10:25 31,8 C 35 % 1022,0 hPa 0,0 l/m 1,4 km/h (1 Bft) S-SO 157 14,4 C 33,5 C 1,8 km/h (1 Bft)
06.08.2013 10:30 31,5 C 34 % 1022,0 hPa 0,0 l/m 1,9 km/h (1 Bft) W-NW 292 13,7 C 33,5 C 0,0 km/h (0 Bft)
06.08.2013 10:35 31,1 C 33 % 1022,0 hPa 0,0 l/m 2,3 km/h (1 Bft) W-SW 247 12,9 C 33,6 C 0,0 km/h (0 Bft)
06.08.2013 10:40 31,6 C 33 % 1022,0 hPa 0,0 l/m 1,9 km/h (1 Bft) S 180 13,3 C 33,9 C 2,9 km/h (1 Bft)
06.08.2013 10:45 32,1 C 35 % 1022,2 hPa 0,0 l/m 1,9 km/h (1 Bft) O-SO 112 14,7 C 33,9 C 1,6 km/h (1 Bft)
06.08.2013 10:50 31,8 C 36 % 1022,2 hPa 0,0 l/m 1,1 km/h (1 Bft) S 180 14,9 C 34,5 C 0,0 km/h (0 Bft)
06.08.2013 10:55 31,1 C 36 % 1022,2 hPa 0,0 l/m 1,1 km/h (1 Bft) W-NW 292 14,2 C 34,6 C 3,5 km/h (1 Bft)
06.08.2013 11:00 31,5 C 38 % 1022,2 hPa 0,0 l/m 1,9 km/h (1 Bft) W-SW 247 15,4 C 34,1 C 2,9 km/h (1 Bft)
06.08.2013 11:05 31,6 C 36 % 1022,3 hPa 0,0 l/m 2,1 km/h (1 Bft) W-NW 292 14,7 C 34,0 C 2,1 km/h (1 Bft)
06.08.2013 11:10 31,3 C 35 % 1022,3 hPa 0,0 l/m 2,1 km/h (1 Bft) O 90 14,0 C 33,6 C 1,8 km/h (1 Bft)
06.08.2013 11:15 31,1 C 35 % 1022,3 hPa 0,0 l/m 2,1 km/h (1 Bft) NW 315 13,8 C 33,7 C 2,7 km/h (1 Bft)
06.08.2013 11:20 31,3 C 39 % 1022,3 hPa 0,0 l/m 2,3 km/h (1 Bft) W-NW 292 15,7 C 33,7 C 12,2 km/h (2 Bft)
06.08.2013 11:25 31,0 C 38 % 1022,3 hPa 0,0 l/m 3,4 km/h (1 Bft) N-NW 337 15,0 C 33,2 C 6,3 km/h (2 Bft)
06.08.2013 11:30 31,1 C 39 % 1022,3 hPa 0,0 l/m 4,5 km/h (1 Bft) N 360 15,5 C 32,5 C 5,6 km/h (1 Bft)
06.08.2013 11:35 30,8 C 38 % 1022,3 hPa 0,0 l/m 4,3 km/h (1 Bft) N-NW 337 14,8 C 32,1 C 5,1 km/h (1 Bft)
06.08.2013 11:40 30,8 C 39 % 1022,3 hPa 0,0 l/m 4,3 km/h (1 Bft) N-NW 337 15,2 C 31,6 C 5,3 km/h (1 Bft)
06.08.2013 11:45 31,2 C 39 % 1022,1 hPa 0,0 l/m 4,2 km/h (1 Bft) N-NW 337 15,6 C 31,1 C 6,1 km/h (2 Bft)
06.08.2013 11:50 31,5 C 38 % 1022,1 hPa 0,0 l/m 4,0 km/h (1 Bft) NO 45 15,4 C 30,5 C 2,3 km/h (1 Bft)
06.08.2013 11:55 31,4 C 38 % 1022,1 hPa 0,0 l/m 3,9 km/h (1 Bft) N 360 15,3 C 30,3 C 3,5 km/h (1 Bft)
06.08.2013 12:00 31,0 C 38 % 1022,1 hPa 0,0 l/m 3,9 km/h (1 Bft) N 360 15,0 C 30,8 C 8,7 km/h (2 Bft)
06.08.2013 12:05 31,0 C 38 % 1022,2 hPa 0,0 l/m 4,2 km/h (1 Bft) N-NW 337 15,0 C 31,0 C 4,3 km/h (1 Bft)
06.08.2013 12:10 31,5 C 37 % 1022,2 hPa 0,0 l/m 4,7 km/h (1 Bft) W-NW 292 15,0 C 31,5 C 5,1 km/h (1 Bft)
06.08.2013 12:15 31,6 C 38 % 1022,2 hPa 0,0 l/m 4,0 km/h (1 Bft) N-NW 337 15,5 C 31,6 C 2,9 km/h (1 Bft)
06.08.2013 12:20 30,8 C 39 % 1022,2 hPa 0,0 l/m 3,4 km/h (1 Bft) W 270 15,2 C 32,4 C 7,2 km/h (2 Bft)
06.08.2013 12:25 31,7 C 38 % 1022,1 hPa 0,0 l/m 2,6 km/h (1 Bft) N 360 15,6 C 32,5 C 3,5 km/h (1 Bft)
06.08.2013 12:30 31,4 C 39 % 1022,1 hPa 0,0 l/m 2,9 km/h (1 Bft) N 360 15,7 C 33,0 C 4,0 km/h (1 Bft)
06.08.2013 12:35 31,8 C 38 % 1022,1 hPa 0,0 l/m 3,4 km/h (1 Bft) W-NW 292 15,7 C 33,0 C 3,4 km/h (1 Bft)
06.08.2013 12:40 31,5 C 38 % 1022,1 hPa 0,0 l/m 3,2 km/h (1 Bft) W 270 15,4 C 33,0 C 4,8 km/h (1 Bft)
06.08.2013 12:45 32,3 C 37 % 1022,0 hPa 0,0 l/m 2,4 km/h (1 Bft) W-SW 247 15,7 C 33,4 C 0,0 km/h (0 Bft)
06.08.2013 12:50 31,6 C 36 % 1022,0 hPa 0,0 l/m 2,1 km/h (1 Bft) NO 45 14,7 C 33,9 C 2,1 km/h (1 Bft)
06.08.2013 12:55 31,7 C 37 % 1022,0 hPa 0,0 l/m 2,3 km/h (1 Bft) W-NW 292 15,2 C 33,9 C 3,9 km/h (1 Bft)
06.08.2013 13:00 31,3 C 36 % 1022,0 hPa 0,0 l/m 2,7 km/h (1 Bft) NW 315 14,4 C 34,0 C 5,5 km/h (1 Bft)
06.08.2013 13:05 31,1 C 38 % 1021,8 hPa 0,0 l/m 3,9 km/h (1 Bft) NW 315 15,1 C 33,8 C 6,3 km/h (2 Bft)
06.08.2013 13:10 31,1 C 36 % 1021,8 hPa 0,0 l/m 4,5 km/h (1 Bft) O-SO 112 14,2 C 33,4 C 2,6 km/h (1 Bft)
06.08.2013 13:15 31,4 C 38 % 1021,8 hPa 0,0 l/m 3,4 km/h (1 Bft) NO 45 15,3 C 33,8 C 3,7 km/h (1 Bft)
06.08.2013 13:20 31,2 C 38 % 1021,8 hPa 0,0 l/m 3,2 km/h (1 Bft) N-NW 337 15,2 C 33,8 C 6,8 km/h (2 Bft)
06.08.2013 13:25 31,2 C 39 % 1021,7 hPa 0,0 l/m 4,2 km/h (1 Bft) NW 315 15,6 C 33,6 C 11,7 km/h (2 Bft)
06.08.2013 13:30 31,1 C 38 % 1021,7 hPa 0,0 l/m 3,7 km/h (1 Bft) O 90 15,1 C 33,8 C 3,5 km/h (1 Bft)
06.08.2013 13:35 31,3 C 38 % 1021,7 hPa 0,0 l/m 3,5 km/h (1 Bft) N 360 15,3 C 33,8 C 5,1 km/h (1 Bft)
06.08.2013 13:40 31,7 C 38 % 1021,7 hPa 0,0 l/m 3,2 km/h (1 Bft) NO 45 15,6 C 33,7 C 6,1 km/h (2 Bft)
06.08.2013 13:45 31,7 C 38 % 1021,6 hPa 0,0 l/m 3,1 km/h (1 Bft) NO 45 15,6 C 33,9 C 4,0 km/h (1 Bft)
06.08.2013 13:50 31,7 C 39 % 1021,6 hPa 0,0 l/m 3,2 km/h (1 Bft) S 180 16,0 C 33,9 C 3,4 km/h (1 Bft)
06.08.2013 13:55 31,5 C 37 % 1021,6 hPa 0,0 l/m 3,7 km/h (1 Bft) N-NW 337 15,0 C 34,0 C 9,0 km/h (2 Bft)
06.08.2013 14:00 31,1 C 38 % 1021,6 hPa 0,0 l/m 4,8 km/h (1 Bft) N 360 15,1 C 33,5 C 6,4 km/h (2 Bft)
06.08.2013 14:05 31,7 C 38 % 1021,4 hPa 0,0 l/m 4,3 km/h (1 Bft) W-NW 292 15,6 C 33,6 C 2,9 km/h (1 Bft)
06.08.2013 14:10 31,4 C 37 % 1021,4 hPa 0,0 l/m 4,7 km/h (1 Bft) NO 45 14,9 C 33,4 C 6,3 km/h (2 Bft)
06.08.2013 14:15 31,4 C 38 % 1021,4 hPa 0,0 l/m 5,1 km/h (1 Bft) W-NW 292 15,3 C 33,1 C 4,5 km/h (1 Bft)
06.08.2013 14:20 31,3 C 37 % 1021,4 hPa 0,0 l/m 4,7 km/h (1 Bft) N-NO 22 14,8 C 33,2 C 5,0 km/h (1 Bft)
06.08.2013 14:25 31,4 C 38 % 1021,2 hPa 0,0 l/m 4,2 km/h (1 Bft) N 360 15,3 C 33,3 C 2,6 km/h (1 Bft)
06.08.2013 14:30 31,4 C 38 % 1021,2 hPa 0,0 l/m 4,3 km/h (1 Bft) W-SW 247 15,3 C 33,5 C 4,8 km/h (1 Bft)
06.08.2013 14:35 31,4 C 39 % 1021,2 hPa 0,0 l/m 5,0 km/h (1 Bft) NW 315 15,7 C 33,5 C 8,5 km/h (2 Bft)
06.08.2013 14:40 31,9 C 39 % 1021,2 hPa 0,0 l/m 4,2 km/h (1 Bft) W 270 16,2 C 33,6 C 4,5 km/h (1 Bft)
06.08.2013 14:45 31,8 C 36 % 1021,1 hPa 0,0 l/m 4,0 km/h (1 Bft) N 360 14,9 C 33,9 C 4,2 km/h (1 Bft)
06.08.2013 14:50 31,9 C 38 % 1021,1 hPa 0,0 l/m 4,3 km/h (1 Bft) N 360 15,8 C 34,1 C 8,2 km/h (2 Bft)
06.08.2013 14:55 31,7 C 38 % 1021,1 hPa 0,0 l/m 3,7 km/h (1 Bft) W 270 15,6 C 34,3 C 2,3 km/h (1 Bft)
06.08.2013 15:00 31,7 C 38 % 1021,1 hPa 0,0 l/m 4,7 km/h (1 Bft) N-NO 22 15,6 C 34,3 C 9,5 km/h (2 Bft)
06.08.2013 15:05 32,0 C 37 % 1020,9 hPa 0,0 l/m 4,7 km/h (1 Bft) N-NO 22 15,5 C 34,3 C 7,7 km/h (2 Bft)
06.08.2013 15:10 31,9 C 36 % 1020,9 hPa 0,0 l/m 3,7 km/h (1 Bft) W 270 14,9 C 34,5 C 8,5 km/h (2 Bft)
06.08.2013 15:15 32,2 C 36 % 1020,9 hPa 0,0 l/m 3,9 km/h (1 Bft) O 90 15,2 C 34,4 C 3,9 km/h (1 Bft)
06.08.2013 15:20 31,7 C 37 % 1020,9 hPa 0,0 l/m 4,3 km/h (1 Bft) NW 315 15,2 C 34,7 C 7,6 km/h (2 Bft)
06.08.2013 15:25 31,9 C 36 % 1020,4 hPa 0,0 l/m 4,5 km/h (1 Bft) N-NW 337 14,9 C 34,5 C 6,3 km/h (2 Bft)
06.08.2013 15:30 32,0 C 35 % 1020,4 hPa 0,0 l/m 5,3 km/h (1 Bft) N-NW 337 14,6 C 34,5 C 8,7 km/h (2 Bft)
06.08.2013 15:35 31,5 C 36 % 1020,4 hPa 0,0 l/m 5,0 km/h (1 Bft) N-NW 337 14,6 C 34,3 C 3,7 km/h (1 Bft)
06.08.2013 15:40 31,9 C 36 % 1020,4 hPa 0,0 l/m 4,5 km/h (1 Bft) N-NW 337 14,9 C 34,4 C 2,9 km/h (1 Bft)
06.08.2013 15:45 31,8 C 35 % 1020,2 hPa 0,0 l/m 4,0 km/h (1 Bft) N-NO 22 14,4 C 34,5 C 3,2 km/h (1 Bft)
06.08.2013 15:50 31,9 C 36 % 1020,2 hPa 0,0 l/m 4,0 km/h (1 Bft) W-NW 292 14,9 C 34,7 C 4,8 km/h (1 Bft)
06.08.2013 15:55 31,8 C 37 % 1020,2 hPa 0,0 l/m 3,9 km/h (1 Bft) N 360 15,3 C 34,8 C 7,2 km/h (2 Bft)
06.08.2013 16:00 31,7 C 36 % 1020,2 hPa 0,0 l/m 4,7 km/h (1 Bft) W-NW 292 14,8 C 34,6 C 6,8 km/h (2 Bft)
06.08.2013 16:05 31,8 C 36 % 1019,9 hPa 0,0 l/m 5,0 km/h (1 Bft) W-NW 292 14,9 C 34,6 C 4,2 km/h (1 Bft)
06.08.2013 16:10 31,6 C 35 % 1019,9 hPa 0,0 l/m 5,0 km/h (1 Bft) N-NW 337 14,2 C 34,5 C 6,4 km/h (2 Bft)
06.08.2013 16:15 31,6 C 37 % 1019,9 hPa 0,0 l/m 4,5 km/h (1 Bft) N 360 15,1 C 34,6 C 7,4 km/h (2 Bft)
06.08.2013 16:20 31,8 C 36 % 1019,9 hPa 0,0 l/m 3,7 km/h (1 Bft) N-NW 337 14,9 C 35,1 C 5,0 km/h (1 Bft)
06.08.2013 16:25 31,6 C 36 % 1019,9 hPa 0,0 l/m 4,2 km/h (1 Bft) N 360 14,7 C 35,2 C 8,4 km/h (2 Bft)
06.08.2013 16:30 31,4 C 37 % 1019,9 hPa 0,0 l/m 5,3 km/h (1 Bft) N-NO 22 14,9 C 34,7 C 7,4 km/h (2 Bft)
06.08.2013 16:35 31,2 C 37 % 1019,9 hPa 0,0 l/m 4,7 km/h (1 Bft) W-NW 292 14,8 C 34,9 C 4,0 km/h (1 Bft)
06.08.2013 16:40 30,8 C 37 % 1019,9 hPa 0,0 l/m 3,9 km/h (1 Bft) W-NW 292 14,4 C 35,2 C 4,0 km/h (1 Bft)
06.08.2013 16:45 30,5 C 37 % 1019,7 hPa 0,0 l/m 3,1 km/h (1 Bft) O-NO 67 14,1 C 35,6 C 2,3 km/h (1 Bft)
06.08.2013 16:50 30,2 C 39 % 1019,7 hPa 0,0 l/m 2,9 km/h (1 Bft) W-NW 292 14,7 C 35,9 C 4,2 km/h (1 Bft)
06.08.2013 16:55 30,2 C 39 % 1019,7 hPa 0,0 l/m 3,5 km/h (1 Bft) N-NW 337 14,7 C 35,8 C 3,7 km/h (1 Bft)
06.08.2013 17:00 29,8 C 41 % 1019,7 hPa 0,0 l/m 3,4 km/h (1 Bft) N-NO 22 15,1 C 35,8 C 2,4 km/h (1 Bft)
06.08.2013 17:05 29,6 C 43 % 1019,4 hPa 0,0 l/m 2,9 km/h (1 Bft) W-NW 292 15,7 C 36,1 C 2,6 km/h (1 Bft)
06.08.2013 17:10 29,7 C 43 % 1019,4 hPa 0,0 l/m 3,5 km/h (1 Bft) W-SW 247 15,8 C 36,1 C 6,1 km/h (2 Bft)
06.08.2013 17:15 29,7 C 42 % 1019,4 hPa 0,0 l/m 3,4 km/h (1 Bft) NW 315 15,4 C 35,7 C 0,0 km/h (0 Bft)
06.08.2013 17:20 29,6 C 43 % 1019,4 hPa 0,0 l/m 3,5 km/h (1 Bft) N 360 15,7 C 35,8 C 8,0 km/h (2 Bft)
06.08.2013 17:25 29,4 C 44 % 1019,2 hPa 0,0 l/m 2,7 km/h (1 Bft) W-NW 292 15,8 C 35,9 C 1,8 km/h (1 Bft)
06.08.2013 17:30 29,1 C 45 % 1019,2 hPa 0,0 l/m 2,6 km/h (1 Bft) W-NW 292 15,9 C 36,3 C 5,0 km/h (1 Bft)
06.08.2013 17:35 29,0 C 45 % 1019,2 hPa 0,0 l/m 2,6 km/h (1 Bft) NO 45 15,8 C 36,1 C 3,2 km/h (1 Bft)
06.08.2013 17:40 29,0 C 45 % 1019,2 hPa 0,0 l/m 3,1 km/h (1 Bft) N 360 15,8 C 36,3 C 3,2 km/h (1 Bft)
06.08.2013 17:45 29,0 C 46 % 1019,1 hPa 0,0 l/m 3,1 km/h (1 Bft) W-SW 247 16,2 C 36,1 C 4,3 km/h (1 Bft)
06.08.2013 17:50 28,9 C 45 % 1019,1 hPa 0,0 l/m 2,1 km/h (1 Bft) N-NO 22 15,8 C 36,2 C 0,0 km/h (0 Bft)
06.08.2013 17:55 28,9 C 45 % 1019,1 hPa 0,0 l/m 1,1 km/h (1 Bft) W-SW 247 15,8 C 36,6 C 0,0 km/h (0 Bft)
06.08.2013 18:00 28,8 C 46 % 1019,1 hPa 0,0 l/m 0,8 km/h (0 Bft) N-NO 22 16,0 C 37,2 C 1,6 km/h (1 Bft)
06.08.2013 18:05 28,9 C 47 % 1018,8 hPa 0,0 l/m 1,6 km/h (1 Bft) N-NW 337 16,4 C 37,2 C 3,5 km/h (1 Bft)
06.08.2013 18:10 28,9 C 46 % 1018,8 hPa 0,0 l/m 1,6 km/h (1 Bft) N 360 16,1 C 37,0 C 0,0 km/h (0 Bft)
06.08.2013 18:15 28,8 C 46 % 1018,8 hPa 0,0 l/m 1,4 km/h (1 Bft) N 360 16,0 C 37,2 C 3,1 km/h (1 Bft)
06.08.2013 18:20 28,4 C 47 % 1018,8 hPa 0,0 l/m 1,1 km/h (1 Bft) O-NO 67 16,0 C 35,4 C 1,8 km/h (1 Bft)
06.08.2013 18:25 28,4 C 48 % 1018,6 hPa 0,0 l/m 1,4 km/h (1 Bft) NO 45 16,3 C 34,3 C 2,1 km/h (1 Bft)
06.08.2013 18:30 28,6 C 48 % 1018,6 hPa 0,0 l/m 1,0 km/h (0 Bft) O-SO 112 16,5 C 33,2 C 1,8 km/h (1 Bft)
06.08.2013 18:35 28,6 C 49 % 1018,6 hPa 0,0 l/m 0,5 km/h (0 Bft) O-NO 67 16,8 C 33,1 C 2,7 km/h (1 Bft)
06.08.2013 18:40 28,5 C 49 % 1018,6 hPa 0,0 l/m 0,3 km/h (0 Bft) O 90 16,7 C 33,0 C 0,0 km/h (0 Bft)
06.08.2013 18:45 28,4 C 48 % 1017,9 hPa 0,0 l/m 0,3 km/h (0 Bft) O 90 16,3 C 33,1 C 0,0 km/h (0 Bft)
06.08.2013 18:50 27,7 C 49 % 1017,9 hPa 0,0 l/m 0,6 km/h (0 Bft) N-NW 337 16,0 C 31,8 C 0,0 km/h (0 Bft)
06.08.2013 18:55 27,3 C 49 % 1017,9 hPa 0,0 l/m 0,6 km/h (0 Bft) NO 45 15,6 C 30,9 C 0,0 km/h (0 Bft)
06.08.2013 19:00 26,8 C 50 % 1017,9 hPa 0,0 l/m 0,3 km/h (0 Bft) O-NO 67 15,5 C 29,8 C 2,6 km/h (1 Bft)
06.08.2013 19:05 26,7 C 51 % 1017,7 hPa 0,0 l/m 1,6 km/h (1 Bft) O 90 15,7 C 29,0 C 4,5 km/h (1 Bft)
06.08.2013 19:10 26,5 C 52 % 1017,7 hPa 0,0 l/m 3,5 km/h (1 Bft) O 90 15,8 C 28,0 C 4,0 km/h (1 Bft)
06.08.2013 19:15 26,1 C 55 % 1017,7 hPa 0,0 l/m 3,4 km/h (1 Bft) O 90 16,3 C 27,5 C 1,9 km/h (1 Bft)
06.08.2013 19:20 25,6 C 59 % 1017,7 hPa 0,0 l/m 2,9 km/h (1 Bft) W-SW 247 17,0 C 27,0 C 16,7 km/h (3 Bft)
06.08.2013 19:25 25,0 C 53 % 1018,4 hPa 0,0 l/m 4,8 km/h (1 Bft) W-SW 247 14,7 C 26,4 C 15,4 km/h (3 Bft)
06.08.2013 19:30 24,0 C 52 % 1018,4 hPa 0,0 l/m 10,0 km/h (2 Bft) W-SW 247 13,5 C 24,4 C 17,4 km/h (3 Bft)
06.08.2013 19:35 23,6 C 53 % 1018,4 hPa 0,0 l/m 9,3 km/h (2 Bft) S-SW 202 13,4 C 23,8 C 13,2 km/h (3 Bft)
06.08.2013 19:40 23,1 C 55 % 1018,4 hPa 0,0 l/m 5,0 km/h (1 Bft) N-NW 337 13,6 C 24,1 C 0,0 km/h (0 Bft)
06.08.2013 19:45 22,9 C 58 % 1019,2 hPa 0,0 l/m 3,1 km/h (1 Bft) NO 45 14,2 C 23,8 C 2,4 km/h (1 Bft)
06.08.2013 19:50 22,8 C 59 % 1019,2 hPa 0,0 l/m 2,9 km/h (1 Bft) SW 225 14,4 C 23,6 C 6,4 km/h (2 Bft)
06.08.2013 19:55 22,9 C 58 % 1019,2 hPa 0,0 l/m 5,1 km/h (1 Bft) S-SW 202 14,2 C 23,2 C 10,1 km/h (2 Bft)
06.08.2013 20:00 19,5 C 74 % 1019,2 hPa 2,1 l/m 10,8 km/h (2 Bft) S-SW 202 14,7 C 18,4 C 26,1 km/h (4 Bft)
06.08.2013 20:05 17,2 C 82 % 1019,5 hPa 4,1 l/m 12,6 km/h (3 Bft) N-NO 22 14,1 C 15,9 C 4,2 km/h (1 Bft)
06.08.2013 20:10 17,0 C 87 % 1019,5 hPa 0,7 l/m 10,1 km/h (2 Bft) O-NO 67 14,8 C 15,5 C 28,6 km/h (4 Bft)
06.08.2013 20:15 17,1 C 88 % 1019,5 hPa 0,7 l/m 6,4 km/h (2 Bft) S-SO 157 15,1 C 17,1 C 8,7 km/h (2 Bft)
06.08.2013 20:20 17,0 C 89 % 1019,5 hPa 0,0 l/m 5,5 km/h (1 Bft) S-SO 157 15,2 C 17,0 C 6,8 km/h (2 Bft)
06.08.2013 20:25 17,0 C 89 % 1020,3 hPa 0,0 l/m 4,8 km/h (1 Bft) SO 135 15,2 C 17,0 C 3,4 km/h (1 Bft)
06.08.2013 20:30 17,0 C 89 % 1020,3 hPa 1,4 l/m 3,4 km/h (1 Bft) W-SW 247 15,2 C 16,9 C 3,7 km/h (1 Bft)
06.08.2013 20:35 17,0 C 90 % 1020,3 hPa 0,7 l/m 1,8 km/h (1 Bft) NO 45 15,3 C 16,9 C 2,3 km/h (1 Bft)
06.08.2013 20:40 17,1 C 90 % 1020,3 hPa 0,0 l/m 3,2 km/h (1 Bft) NO 45 15,4 C 17,0 C 9,0 km/h (2 Bft)
06.08.2013 20:45 17,1 C 90 % 1021,1 hPa 0,0 l/m 4,5 km/h (1 Bft) O-SO 112 15,4 C 17,0 C 0,0 km/h (0 Bft)
06.08.2013 20:50 17,2 C 91 % 1021,1 hPa 0,0 l/m 4,0 km/h (1 Bft) N-NO 22 15,7 C 17,1 C 9,0 km/h (2 Bft)
06.08.2013 20:55 17,2 C 91 % 1021,1 hPa 0,0 l/m 4,3 km/h (1 Bft) S 180 15,7 C 17,1 C 4,7 km/h (1 Bft)
06.08.2013 21:00 17,2 C 91 % 1021,1 hPa 0,7 l/m 6,4 km/h (2 Bft) NO 45 15,7 C 17,1 C 3,1 km/h (1 Bft)
06.08.2013 21:05 17,2 C 91 % 1020,1 hPa 0,0 l/m 3,9 km/h (1 Bft) W 270 15,7 C 17,1 C 1,6 km/h (1 Bft)
06.08.2013 21:10 17,2 C 92 % 1020,1 hPa 0,0 l/m 3,2 km/h (1 Bft) S-SW 202 15,9 C 17,2 C 10,0 km/h (2 Bft)
06.08.2013 21:15 17,2 C 92 % 1020,1 hPa 0,0 l/m 5,8 km/h (2 Bft) S 180 15,9 C 17,2 C 12,1 km/h (2 Bft)
06.08.2013 21:20 16,5 C 91 % 1020,1 hPa 0,0 l/m 12,6 km/h (3 Bft) S 180 15,0 C 13,9 C 32,7 km/h (5 Bft)
06.08.2013 21:25 16,0 C 91 % 1022,7 hPa 0,7 l/m 16,1 km/h (3 Bft) S 180 14,5 C 11,6 C 24,6 km/h (4 Bft)
06.08.2013 21:30 15,6 C 92 % 1022,7 hPa 0,0 l/m 13,0 km/h (3 Bft) O-SO 112 14,3 C 12,1 C 9,3 km/h (2 Bft)
06.08.2013 21:35 15,5 C 92 % 1022,7 hPa 0,0 l/m 10,8 km/h (2 Bft) W-SW 247 14,2 C 13,0 C 10,0 km/h (2 Bft)
06.08.2013 21:40 15,4 C 92 % 1022,7 hPa 0,0 l/m 7,2 km/h (2 Bft) S 180 14,1 C 15,1 C 8,4 km/h (2 Bft)
06.08.2013 21:45 15,4 C 92 % 1022,3 hPa 0,0 l/m 5,5 km/h (1 Bft) S 180 14,1 C 15,4 C 4,2 km/h (1 Bft)
06.08.2013 21:50 15,3 C 92 % 1022,3 hPa 0,7 l/m 3,9 km/h (1 Bft) SO 135 14,0 C 15,3 C 2,6 km/h (1 Bft)
06.08.2013 21:55 15,1 C 92 % 1022,3 hPa 0,0 l/m 3,2 km/h (1 Bft) O-SO 112 13,8 C 15,3 C 3,7 km/h (1 Bft)
06.08.2013 22:00 15,1 C 93 % 1022,3 hPa 0,0 l/m 2,7 km/h (1 Bft) SO 135 14,0 C 15,2 C 2,6 km/h (1 Bft)
06.08.2013 22:05 15,1 C 93 % 1022,1 hPa 0,0 l/m 2,9 km/h (1 Bft) NO 45 14,0 C 15,2 C 6,1 km/h (2 Bft)
06.08.2013 22:10 15,1 C 93 % 1022,1 hPa 0,0 l/m 2,1 km/h (1 Bft) W-NW 292 14,0 C 15,2 C 0,0 km/h (0 Bft)
06.08.2013 22:15 15,1 C 93 % 1022,1 hPa 0,0 l/m 1,4 km/h (1 Bft) N-NO 22 14,0 C 15,1 C 2,4 km/h (1 Bft)
06.08.2013 22:20 15,0 C 93 % 1022,1 hPa 0,0 l/m 1,0 km/h (0 Bft) O 90 13,9 C 15,0 C 2,4 km/h (1 Bft)
06.08.2013 22:25 15,0 C 93 % 1021,8 hPa 0,0 l/m 1,3 km/h (1 Bft) O-NO 67 13,9 C 15,0 C 0,0 km/h (0 Bft)
06.08.2013 22:30 14,8 C 93 % 1021,8 hPa 0,0 l/m 0,8 km/h (0 Bft) S-SW 202 13,7 C 14,9 C 3,1 km/h (1 Bft)
06.08.2013 22:35 14,8 C 93 % 1021,8 hPa 0,0 l/m 0,6 km/h (0 Bft) NO 45 13,7 C 14,8 C 1,6 km/h (1 Bft)
06.08.2013 22:40 14,8 C 93 % 1021,8 hPa 0,0 l/m 1,4 km/h (1 Bft) O-SO 112 13,7 C 14,7 C 1,8 km/h (1 Bft)
06.08.2013 22:45 14,8 C 93 % 1022,1 hPa 0,0 l/m 1,0 km/h (0 Bft) O-NO 67 13,7 C 14,7 C 0,0 km/h (0 Bft)
06.08.2013 22:50 14,7 C 94 % 1022,1 hPa 0,0 l/m 0,3 km/h (0 Bft) N 360 13,7 C 14,7 C 0,0 km/h (0 Bft)
06.08.2013 22:55 14,7 C 94 % 1022,1 hPa 0,0 l/m 0,6 km/h (0 Bft) SO 135 13,7 C 14,6 C 4,0 km/h (1 Bft)
06.08.2013 23:00 14,9 C 94 % 1022,1 hPa 0,0 l/m 1,9 km/h (1 Bft) NO 45 13,9 C 14,7 C 3,2 km/h (1 Bft)
06.08.2013 23:05 14,9 C 94 % 1021,4 hPa 0,0 l/m 2,1 km/h (1 Bft) O-NO 67 13,9 C 14,8 C 1,6 km/h (1 Bft)
06.08.2013 23:10 14,7 C 94 % 1021,4 hPa 0,0 l/m 1,1 km/h (1 Bft) S 180 13,7 C 14,8 C 0,0 km/h (0 Bft)
06.08.2013 23:15 14,7 C 94 % 1021,4 hPa 0,0 l/m 0,3 km/h (0 Bft) O-SO 112 13,7 C 14,6 C 2,3 km/h (1 Bft)
06.08.2013 23:20 14,7 C 94 % 1021,4 hPa 0,0 l/m 0,3 km/h (0 Bft) O 90 13,7 C 14,5 C 2,4 km/h (1 Bft)
06.08.2013 23:25 14,8 C 94 % 1020,8 hPa 0,0 l/m 0,8 km/h (0 Bft) S-SW 202 13,8 C 14,6 C 0,0 km/h (0 Bft)
06.08.2013 23:30 14,7 C 94 % 1020,8 hPa 0,0 l/m 0,6 km/h (0 Bft) NO 45 13,7 C 14,6 C 0,0 km/h (0 Bft)
06.08.2013 23:35 14,7 C 94 % 1020,8 hPa 0,0 l/m 0,5 km/h (0 Bft) O-NO 67 13,7 C 14,6 C 2,6 km/h (1 Bft)
06.08.2013 23:40 14,7 C 94 % 1020,8 hPa 0,0 l/m 0,5 km/h (0 Bft) O-SO 112 13,7 C 14,5 C 0,0 km/h (0 Bft)
06.08.2013 23:45 14,5 C 94 % 1020,6 hPa 0,0 l/m 0,3 km/h (0 Bft) W-SW 247 13,5 C 14,5 C 0,0 km/h (0 Bft)
06.08.2013 23:50 14,5 C 94 % 1020,6 hPa 0,0 l/m 0,0 km/h (0 Bft) S 180 13,5 C 14,5 C 0,0 km/h (0 Bft)
06.08.2013 23:55 14,7 C 94 % 1020,6 hPa 0,0 l/m 0,0 km/h (0 Bft) O 90 13,7 C 14,4 C 0,0 km/h (0 Bft)
_ Min-Zeit 23:50 10:40 19:20 - 23:55 - - 06:05 21:25 23:55
Minimum _ 14,5 C 33 % 1017,7 hPa - 0,0 km/h (0 Bft) - - 11,2 C 11,6 C 0,0 km/h (0 Bft)
_ Max-Zeit 12:45 23:55 02:20 20:05 21:25 - - 09:25 18:15 21:20
Maximum _ 32,3 C 94 % 1022,8 hPa 4,1 l/m 16,1 km/h
S (3 Bft)
- - 17,2 C 37,2 C 32,7 km/h
S (5 Bft)
Durchschnitt _ 23,8 C 60 % 1021,0 hPa #11,7 l/m 2,6 km/h (1 Bft) S - 14,5 C 25,3 C 3,7 km/h (1 Bft)